Regional Weather Roundup
Issued by NWS

Home | Current Version | Previous Version | Text Only | Print | Product List | Glossary Off
Versions: 1 2 3 4 5 6 7 8 9 10 11 12 13 14 15 16 17 18 19 20 21 22 23 24 25 26 27 28 29 30 31 32 33 34 35 36 37 38 39 40 41 42 43 44 45 46 47 48 49 50

000
ASUS43 KTOP 280259
RWRKS

WEATHER ROUNDUP FOR KANSAS
NATIONAL WEATHER SERVICE GOODLAND KS
900 PM CST THU NOV 27 2014

NOTE:  "FAIR" INDICATES FEW OR NO CLOUDS BELOW 12,000 FEET WITH NO
SIGNIFICANT WEATHER AND/OR OBSTRUCTIONS TO VISIBILITY.

KSZ001>006-013>018-027>032-041>047-280400-
NORTHWEST KANSAS

CITY           SKY/WX    TMP DP  RH WIND       PRES   REMARKS
GOODLAND       MOCLDY    48  28  46 W13       30.05F
HAYS           CLEAR     37  18  44 S12       30.08F WCI  30
HILL CITY      CLEAR     44  25  47 SW10      30.06F
RUSSELL        CLEAR     39  22  50 S18       30.07F WCI  30
$$

KSZ061>065-074>080-084>089-280400-
SOUTHWEST KANSAS

CITY           SKY/WX    TMP DP  RH WIND       PRES   REMARKS
DODGE CITY     CLEAR     45  24  43 S21       30.11F
ELKHART          N/A     49  27  42 SW14        N/A
GARDEN CITY    CLEAR     42  29  59 S9        30.08F
GREAT BEND     PTCLDY    39  21  48 S14       30.12S WCI  31
LIBERAL        CLEAR     43  27  52 S14       30.13F
$$

KSZ066>073-081>083-090>101-280400-
SOUTHEAST KANSAS

CITY           SKY/WX    TMP DP  RH WIND       PRES   REMARKS
CHANUTE        CLEAR     31  23  72 SE7       30.32F
COFFEYVILLE    CLEAR     33  25  72 SE7       30.33F
HUTCHINSON     PTCLDY    40  21  46 S16       30.17F WCI  31
MEDICINE LODGE   N/A     41  25  53 S14G21    30.18F
NEWTON         PTCLDY    37  16  41 S16       30.21F WCI  28
PARSONS        PTCLDY    35  25  66 SE6       30.33F
WICHITA INTL   PTCLDY    40  20  44 S18       30.20F WCI  31
WICHITA JABRA  PTCLDY    37  20  50 S14       30.21F WCI  28
WINFIELD       PTCLDY    35  23  61 S9        30.26F
$$

KSZ007>012-019>026-033>040-048>060-102>105-280400-
NORTHEAST KANSAS

CITY           SKY/WX    TMP DP  RH WIND       PRES   REMARKS
CONCORDIA      CLEAR     36  18  48 S15       30.15F WCI  27
EMPORIA        CLEAR     30  20  66 SE10      30.25F WCI  21
LAWRENCE       CLEAR     26  20  77 SE8       30.31F
MANHATTAN      CLEAR     32  19  58 S5        30.22F
OLATHE IND     CLEAR     30  22  72 SE9       30.31F
OLATHE EXE     CLEAR     31  23  72 SE8       30.30F
SALINA         CLEAR     36  19  50 SE12      30.17F WCI  28
TOPEKA BILLARD CLEAR     35  21  56 SE10      30.28F WCI  27
TOPEKA FORBES  CLEAR     34  21  59 SE12      30.27F WCI  25
$$


USA.gov is the U.S. government's official web portal to all federal, state and local government web resources and services.